カタログに戻る

FENGYUN 1C DEB

運用中SSO
NORAD 30753·DEBRIS·🇨🇳 China

打ち上げ May 10, 1999 から Taiyuan Satellite Launch Center

Loading…

次のパス (今後24時間)

TLE

最新Source: Space-Track

元期: Sep 14, 2026, 13:33 UTC

1 30753U 99025ATP 26257.56462440  .00001071  00000-0  58472-3 0  9994
2 30753  98.7865 296.3842 0053990 291.0022  68.5380 14.13458818  2486

AllMySatでFENGYUN 1C DEBをリアルタイム追跡

Download on the App Store